Tracking 31027 objects as of 19-Jul-2025
HD Live streaming from Space Station
objects crossing your sky now

THORAD AGENA D DEB

Track THORAD AGENA D DEB now!
10-day predictions


NORAD ID: 10136
Int'l Code: 1970-025NQ
Perigee: 1,070.6 km
Apogee: 1,073.6 km
Inclination: 100.1 °
Period: 106.5 minutes
Semi major axis: 7443 km
RCS: 0.0546 m2 (small)
Launch date: April 8, 1970
Source: United States (US)
Launch site: AIR FORCE WESTERN TEST RANGE (AFWTR)

Note: This is SATELLITE DEBRIS
Your satellite tracking list
ST5-A
Track 1 satellite(s)




NASA's NSSDC Master Catalog

Two Line Element Set (TLE):
1 10136U 70025NQ  25199.65748645  .00000010  00000-0  86865-4 0  9994
2 10136 100.1152 163.6889 0002008  89.1928  93.4669 13.51978193725650
Source of the keplerian elements: AFSPC